AirNav   Air Wisconsin Up To $57,000 Bonus
 
 1118 users online  

8CO7 Colorado Antique Field Airport
Niwot, Colorado, USA

GOING TO NIWOT?


FAA INFORMATION EFFECTIVE 31 DECEMBER 2020

Location

FAA Identifier: 8CO7
Lat/Long: 40-07-20.9460N 105-10-20.9470W
40-07.349100N 105-10.349117W
40.1224850,-105.1724853
(estimated)
Elevation: 5069 ft. / 1545 m (estimated)
Variation: 12E (1985)
From city: 1 mile N of NIWOT, CO
Time zone: UTC -7 (UTC -6 during Daylight Saving Time)
Zip code: 80503

Airport Operations

Airport use: Private use. Permission required prior to landing
Activation date: 03/1979
Control tower: no
ARTCC: DENVER CENTER
FSS: DENVER FLIGHT SERVICE STATION
Attendance: UNATNDD
Wind indicator: yes
Segmented circle: no

Airport Communications

WX AWOS-3 at LMO (2.5 nm N): 120.0 (303-684-7545)
WX AWOS-3 at BDU (6 nm SW): 118.825 (303-541-9540)
WX AWOS-3 at EIK (9 nm SE): 133.825 (303-604-4339)
WX AWOS-3 at BJC (13 nm S): PHONE 720-887-8067

Nearby radio navigation aids

VOR radial/distance  VOR name  Freq  Var
BJCr342/12.7JEFFCO VOR/DME115.4011E
DVVr290/28.7MILE HIGH VORTAC114.7008E
DENr300/30.0DENVER VOR/DME117.9008E
FQFr305/36.3FALCON VORTAC116.3011E
GLLr218/36.4GILL VOR/DME114.2013E

Airport Services

Runway Information

Runway 7/25

Dimensions: 3400 x 150 ft. / 1036 x 46 m
Surface: turf
RUNWAY 7  RUNWAY 25
Traffic pattern: rightleft
Obstructions: 12 ft. hedge
25-FOOT PLINE 1300 FEET FROM THR.
23 ft. pline
35-FOOT TREES ON NORTH AND SOUTH SIDE OF CNTLN.

Airport Ownership and Management from official FAA records

Ownership: Privately-owned
Owner: GREINER/BECKER/BERMAN
8195 N 81ST ST
LONGMONT, CO 80503
Phone 303-652-2054
Manager: J B GREINER
8195 N 81ST ST
LONGMONT, CO 80503
Phone 303-652-0676

Airport Operational Statistics

Aircraft based on the field: 5
Single engine airplanes: 5
    

Additional Remarks

FOR CD CTC DENVER APCH AT 303-342-1916.

Instrument Procedures

There are no published instrument procedures at 8CO7.

Some nearby airports with instrument procedures:

KLMO - Vance Brand Airport (3 nm N)
KEIK - Erie Municipal Airport (9 nm SE)
KBJC - Rocky Mountain Metro Airport (13 nm S)
KFNL - Northern Colorado Regional Airport (21 nm N)
KDEN - Denver International Airport (28 nm SE)
 
Loc | Ops | Rwys | IFR | FBO | Links
Com | Nav | Svcs | Stats | Notes

AirBoss

 
Area around 8CO7 (Colorado Antique Field Airport)
 
Road maps at: MapQuest Bing Google
 
Aerial photo
No photo
 
Sectional chart

 
Airport distance calculator
Flying to Colorado Antique Field Airport? Find the distance to fly.

From to 8CO7

Sunrise and sunset
Times for 23-Jan-2021
 Local
(UTC-7)
 Zulu
(UTC)
Morning civil twilight06:4913:49
Sunrise07:1814:18
Sunset17:0700:07
Evening civil twilight17:3700:37

Current date and time
Zulu (UTC)  23-Jan-2021 20:40:17
Local (UTC-7)  23-Jan-2021 13:40:17
 
METAR
KLMO 
3nm N 
232015Z AUTO 35003KT 10SM SCT110 08/M06 A2966 RMK AO2 T00761062
K1V5 
6nm SW 
AWOS 118.825 303-541-9540
No observation available
KBDU 
6nm SW 
232015Z AUTO 14003KT 10SM SCT085 BKN110 03/M06 A2964 RMK AO2
KEIK 
9nm SE 
232015Z AUTO 35006KT 10SM SCT060 BKN090 BKN120 06/M07 A2964 RMK AO2 T00611069 PWINO
KBJC 
13nm S 
231945Z 04005KT 75SM SCT070 BKN180 07/M06 A2963 RMK VIRGA SW-NW
TAF
KBJC 
13nm S 
231734Z 2318/2418 VRB04KT P6SM FEW080 SCT140 FM232200 01010KT P6SM SCT080 BKN120 FM240300 02010KT P6SM BKN012 FM240500 36007KT P6SM OVC005 FM241300 33007KT P6SM BKN008 OVC020
NOTAMs
Click for the latest NOTAMs
NOTAMs are issued by the DoD/FAA and will open in a separate window not controlled by AirNav.

 

 
 

Would you like to see your business listed on this page?

 If your business provides an interesting product or service to pilots, flight crews, aircraft, or users of the Colorado Antique Field Airport, you should consider listing it here.  To start the listing process, click on the button below
 
Add a business
 

Other Pages about Colorado Antique Field Airport

Update a link
 
Copyright © AirNav, LLC. All rights reserved. Privacy Policy  Contact